Theta_e
301 295 292 296 298 298 296 294 293 297 300 298 297 297 299 303 303 303 304 306 307 309 313 315 317 318 319 320 322 323 323 325 326 329 331 335 337 337 336 336 335 328 322 315
295 291 298 299 298 296 295 293 293 296 298 296 295 294 298 300 300 302 302 303 304 306 308 311 314 315 317 318 321 322 323 324 326 330 334 336 331 326 326 327 325 320 316 311
293 295 297 296 294 292 293 291 292 292 295 296 294 292 296 300 302 302 303 303 304 304 305 307 309 312 317 317 320 322 323 325 328 331 334 334 320 313 309 311 312 312 309 306
295 298 294 293 292 294 289 295 293 291 290 286 293 285 293 297 299 301 301 303 303 304 305 306 307 309 312 316 322 323 324 326 330 333 331 329 319 312 309 307 308 306 305 303
292 293 293 291 292 295 291 294 292 292 289 288 289 285 291 296 295 297 300 302 304 306 306 306 308 310 311 315 320 324 324 326 330 331 330 325 318 318 309 303 302 300 300 300
295 298 296 295 295 296 295 292 290 290 287 281 287 288 288 292 295 297 301 302 302 304 305 306 308 309 311 314 320 324 324 326 329 330 325 322 323 312 303 300 298 298 300 300
292 292 295 296 292 294 293 288 283 281 279 280 290 287 289 295 297 298 299 301 303 303 304 304 305 307 309 312 315 322 322 323 326 324 324 323 322 311 305 300 298 297 296 297
285 285 292 295 292 290 289 288 283 278 280 284 290 283 289 298 299 299 300 301 302 302 303 305 306 308 311 312 314 319 321 322 322 322 323 325 316 311 307 302 301 297 297 295
286 285 294 295 296 293 289 284 291 284 285 281 284 289 295 297 297 298 299 300 300 301 303 304 306 308 308 312 314 319 320 321 320 321 323 318 312 309 305 302 298 296 297 295
291 285 291 294 295 295 292 294 283 284 276 277 284 286 288 293 295 297 297 298 300 302 303 305 307 309 309 313 316 319 320 318 319 320 317 313 306 300 296 296 294 294 293 294
293 289 287 291 288 288 289 286 288 288 285 280 280 285 293 291 294 295 296 298 300 301 303 305 307 310 310 313 317 318 319 316 317 314 307 303 299 296 294 293 293 292 294 293
293 289 283 287 293 294 293 289 288 281 282 284 283 284 295 295 296 296 296 299 300 301 303 306 307 310 310 314 317 317 316 314 313 308 302 297 295 294 294 293 293 295 292 294
293 287 282 285 289 292 289 290 291 290 288 282 280 284 295 296 295 296 296 298 300 301 303 306 306 308 311 314 314 313 312 309 307 303 298 295 294 293 292 292 294 293 293 292
297 290 286 283 288 291 287 289 291 287 283 284 285 287 292 294 295 295 297 298 300 301 304 305 305 306 309 311 310 309 306 304 301 298 295 293 292 292 292 292 293 293 292 291
293 286 288 289 290 291 290 289 290 286 287 282 286 286 292 294 296 297 299 299 300 301 303 303 303 305 306 307 306 302 299 299 298 295 293 292 292 291 291 292 292 291 291 290
293 286 288 284 290 290 288 291 291 291 290 289 289 288 296 298 298 297 298 299 299 301 303 302 302 303 303 299 297 294 293 292 292 291 291 290 290 290 291 290 290 290 289 289
291 287 285 283 290 289 287 292 292 292 293 292 286 292 297 295 296 297 297 299 300 301 301 299 299 299 295 292 291 290 290 290 289 288 289 289 289 289 290 289 289 289 288 288
291 288 286 285 288 282 293 299 297 293 294 295 294 296 297 296 298 298 298 299 299 302 298 298 296 293 291 290 289 289 290 289 288 288 287 288 288 288 289 288 288 288 288 288
295 291 287 283 284 289 294 296 294 292 291 296 294 297 298 300 300 295 299 300 301 300 299 295 293 290 289 288 289 289 288 288 288 287 287 288 288 288 288 287 287 287 287 286
295 294 288 286 282 281 293 298 299 298 289 296 295 297 299 299 293 291 297 296 298 295 292 290 290 289 289 290 290 290 289 289 288 289 289 289 288 288 287 287 286 286 286 285
288 288 284 285 283 289 298 299 299 289 290 298 297 297 299 294 294 296 297 294 295 293 292 293 292 291 291 292 292 290 290 288 288 288 288 288 288 287 287 286 286 286 285 285
290 288 286 287 285 284 300 301 294 298 300 299 298 297 294 294 294 293 293 293 292 293 293 293 292 292 292 293 291 288 286 286 286 286 285 286 286 286 286 286 286 285 284 284
290 294 292 293 293 302 304 302 302 300 298 298 298 298 296 292 292 292 290 289 289 289 289 289 288 288 290 289 287 285 285 285 285 284 284 285 285 286 286 286 285 284 284 283
297 300 295 296 300 302 303 303 300 298 296 297 298 299 298 293 292 291 291 291 290 291 290 290 289 287 285 285 284 283 283 284 285 284 284 285 284 284 284 284 284 284 283 282
298 299 297 297 300 302 300 299 298 296 295 295 295 296 295 292 291 290 289 289 289 290 290 290 288 285 283 283 282 283 284 285 284 284 284 284 284 284 283 283 283 282 283 282
300 297 295 295 300 300 298 299 298 295 293 293 293 293 293 293 290 290 288 288 288 288 288 286 285 283 282 283 283 285 286 286 285 283 284 284 283 283 283 282 282 283 281 281
Wind_Speed
9 8 13 16 15 17 8 9 12 10 7 15 20 23 20 19 20 21 20 20 21 22 19 19 18 18 20 21 20 20 17 15 12 9 10 10 10 5 4 4 11 12 11 10
5 15 15 10 9 12 13 14 15 14 13 12 17 29 24 25 27 23 23 24 24 24 23 23 22 21 21 21 21 19 18 16 13 9 9 8 7 6 4 4 8 9 10 10
12 1 4 12 10 11 13 14 13 15 16 18 22 28 21 15 16 21 23 23 25 24 24 23 24 22 20 22 20 17 18 15 14 13 9 8 10 8 5 6 5 7 10 9
13 8 4 8 12 11 11 9 10 11 9 6 5 14 15 16 17 15 15 15 16 18 20 21 22 20 21 20 18 16 16 14 14 14 14 16 10 10 6 8 5 6 9 10
4 6 12 13 12 8 6 3 5 8 10 14 15 10 14 9 11 13 15 14 14 13 13 14 17 17 18 16 16 15 14 14 14 15 14 13 13 10 10 9 13 10 9 9
11 3 5 6 4 8 4 3 6 7 7 10 16 17 20 9 9 6 6 4 6 6 9 10 12 14 14 14 11 13 14 15 15 15 17 17 15 16 13 13 10 8 7 6
11 16 7 8 6 5 8 1 2 5 5 9 2 11 17 16 10 7 8 11 14 7 7 13 14 13 13 13 15 12 15 16 17 17 16 17 16 18 17 16 11 13 9 7
8 6 17 12 12 5 13 8 5 6 8 11 4 11 8 10 5 5 11 16 15 9 11 6 13 13 12 14 15 16 17 16 17 17 16 14 17 10 10 12 12 9 9 8
5 3 1 9 7 10 6 9 9 13 17 13 10 20 23 21 21 14 16 15 17 16 8 10 10 12 14 14 16 17 17 17 16 17 14 16 15 15 12 14 14 9 11 9
2 3 6 7 5 10 12 1 2 4 6 11 10 19 14 12 12 7 13 11 9 6 8 9 9 13 13 13 14 16 18 17 17 17 14 13 14 14 13 13 12 12 10 10
5 3 6 5 12 13 11 10 7 8 8 8 13 9 10 11 12 13 14 12 1 8 10 12 12 12 9 11 13 15 16 17 16 16 16 15 14 16 14 13 13 12 9 9
9 3 5 12 8 8 13 14 17 8 9 8 12 24 11 13 12 9 12 4 8 9 11 10 12 9 5 9 12 14 14 16 15 16 16 16 15 15 15 14 13 12 11 10
10 5 4 3 2 8 11 14 18 17 17 19 16 17 3 6 8 6 11 17 14 15 12 9 8 7 5 9 12 14 15 16 15 16 16 16 15 15 15 15 13 10 12 11
4 5 9 9 10 9 7 15 16 13 9 20 24 34 25 23 15 15 16 20 22 18 8 8 5 6 8 10 12 14 15 15 15 16 17 16 15 15 14 13 13 12 12 10
6 7 13 18 20 19 17 21 22 19 21 17 29 27 28 20 18 12 18 19 19 14 6 5 4 7 9 12 13 14 13 15 15 17 16 16 15 15 13 12 12 11 10 9
4 4 2 15 18 14 16 20 18 18 18 16 18 22 19 13 12 9 14 14 13 5 2 4 6 9 11 12 12 13 15 15 14 17 16 15 15 14 13 12 12 10 9 9
5 3 3 6 11 20 9 4 9 12 12 8 8 8 11 10 10 10 11 10 9 7 6 7 9 10 11 11 11 13 15 15 16 17 15 15 14 12 12 11 11 8 9 7
6 4 2 6 12 4 1 2 10 7 7 10 12 14 12 11 8 4 7 8 8 7 9 9 10 11 12 12 13 14 14 15 16 16 15 13 13 12 11 10 10 9 7 6
13 6 3 4 6 16 5 9 7 2 4 8 10 11 11 11 4 6 12 10 9 10 10 12 11 13 13 14 13 14 16 16 15 14 14 12 12 12 11 10 9 7 6 4
13 10 3 3 5 5 6 12 5 6 1 2 4 11 11 13 5 5 10 12 12 15 13 13 14 15 15 13 13 15 15 14 13 13 13 13 11 11 11 9 7 5 5 4
5 3 6 7 5 9 9 11 3 6 7 9 2 8 9 7 5 6 9 11 10 13 14 13 14 14 14 14 14 15 15 15 14 13 13 11 10 10 9 8 6 5 4 1
8 6 4 4 5 7 6 8 5 8 9 7 2 2 7 8 7 9 11 11 9 12 15 15 14 14 14 14 14 16 15 13 12 12 12 11 9 7 7 7 5 4 2 2
5 7 3 8 5 9 10 7 7 5 10 5 1 5 6 7 5 8 10 11 10 11 11 11 13 14 12 12 12 16 12 12 12 12 11 10 9 8 6 5 4 1 1 3
7 5 4 4 5 4 11 5 3 6 5 4 2 5 7 9 9 9 9 11 12 11 12 12 14 14 14 12 12 13 12 11 12 11 10 8 7 7 5 3 2 2 2 3
4 6 4 8 13 2 4 6 5 4 5 6 6 5 8 12 11 11 10 11 11 11 11 11 12 13 14 12 12 10 10 10 11 9 8 7 5 5 3 3 3 2 3 4
7 8 7 5 5 3 4 4 4 4 5 7 9 10 10 11 12 12 11 11 10 11 11 12 13 14 13 12 12 10 9 9 9 8 6 5 4 3 2 1 1 5 2 2
Wind_Direction
194 210 216 221 224 259 283 293 284 279 281 278 276 276 273 272 263 259 256 255 252 251 251 242 237 243 244 236 233 225 226 209 204 196 197 197 202 124 114 154 154 166 163 149
169 232 233 239 259 244 253 261 264 277 282 292 292 284 281 269 259 257 254 251 252 253 247 244 238 231 234 236 230 227 220 208 200 191 197 194 112 82 82 111 151 161 155 148
213 98 268 226 220 234 241 258 273 284 307 295 280 282 262 255 243 242 246 250 251 252 251 246 239 236 226 230 227 220 223 206 196 194 179 143 101 102 106 136 140 172 148 144
235 209 198 205 225 224 261 267 280 284 289 278 88 293 285 281 265 249 227 238 240 241 242 247 252 246 235 225 225 215 217 202 192 181 175 169 166 160 154 143 136 135 134 133
216 217 214 227 227 211 245 27 283 290 289 311 263 247 264 279 253 239 234 243 253 250 246 249 238 240 250 247 218 209 209 203 188 182 168 164 174 167 147 133 139 141 133 129
261 128 227 216 200 222 67 268 274 269 270 255 243 220 274 275 296 320 309 208 190 251 261 265 261 254 238 239 241 193 198 196 183 173 175 179 177 151 148 146 143 139 135 143
228 229 196 233 224 199 208 205 266 217 207 248 253 219 237 294 282 275 259 241 282 283 288 289 274 252 237 224 223 194 201 193 175 180 186 186 155 162 158 149 145 143 137 147
201 184 198 168 217 197 207 203 236 271 256 305 261 247 242 247 257 242 276 274 269 261 262 273 300 267 243 222 211 194 197 189 178 181 180 175 148 158 154 151 152 146 146 140
180 245 210 174 193 206 169 210 244 281 281 274 245 269 276 270 260 285 266 253 264 266 252 284 304 287 247 223 214 196 193 182 175 173 172 146 155 153 153 146 140 138 142 140
25 248 178 169 215 227 220 358 166 201 262 265 265 278 264 244 242 311 280 269 253 227 278 308 320 305 251 227 202 197 189 172 169 163 141 147 147 140 131 128 123 121 119 138
184 214 140 153 208 203 199 231 231 286 239 276 297 253 61 32 349 320 308 278 142 292 303 320 322 305 257 219 192 183 176 161 157 142 140 140 138 138 127 123 117 117 135 133
191 180 249 243 237 222 233 219 226 232 232 234 275 270 292 293 286 268 286 284 278 295 304 319 317 299 233 197 176 165 154 155 145 130 134 136 139 132 125 123 123 137 135 137
165 207 280 165 148 240 231 248 253 249 266 252 264 258 306 276 289 315 300 293 299 304 307 329 311 272 192 169 165 152 147 144 133 132 130 135 134 128 122 119 129 132 128 132
222 221 242 281 320 329 227 251 251 244 256 268 250 277 277 276 258 268 271 275 293 292 318 318 293 236 177 162 152 146 135 136 136 131 131 130 125 122 124 126 129 130 128 131
202 256 259 265 278 284 280 279 277 267 258 255 282 281 285 293 282 272 267 267 257 268 290 281 241 204 163 155 138 126 131 135 135 127 126 122 116 116 114 121 122 121 124 118
231 264 281 282 263 263 277 277 278 270 268 266 272 278 286 285 276 287 292 251 254 298 257 210 195 177 142 120 130 130 134 130 122 120 114 111 110 117 120 121 119 118 112 118
209 212 276 271 326 307 275 240 278 296 291 275 276 290 324 319 314 322 297 290 278 275 171 177 171 149 133 134 133 133 130 119 114 105 107 109 114 120 117 123 114 122 116 121
199 174 243 293 311 264 46 339 283 260 287 336 290 289 318 316 293 15 348 294 257 162 143 152 132 136 127 126 125 126 118 114 107 108 106 111 118 117 123 116 119 117 118 120
222 201 269 275 304 279 282 23 331 304 293 319 323 315 316 315 338 46 4 359 89 122 131 116 126 124 114 119 121 117 109 105 102 104 109 120 123 122 121 117 116 113 120 122
223 224 197 326 296 291 347 15 19 149 326 63 328 334 342 327 73 20 26 11 79 86 106 120 115 109 114 103 108 105 101 101 106 123 123 119 116 117 113 108 107 103 96 98
159 169 215 229 257 275 296 331 112 307 353 353 76 329 1 39 39 66 63 56 68 100 110 110 111 109 119 128 131 121 119 114 112 115 110 105 99 99 105 112 107 102 92 85
182 180 190 184 223 265 12 313 348 341 313 329 72 355 80 75 69 70 75 83 79 95 98 101 105 107 110 115 112 107 104 108 104 100 97 98 101 105 100 97 90 87 54 296
226 214 180 205 233 314 315 297 328 345 304 339 353 136 134 117 96 103 102 87 81 83 92 95 102 104 100 97 103 103 103 106 104 101 103 104 103 99 97 98 102 143 327 326
220 197 239 292 194 314 324 326 15 357 359 13 74 142 151 131 133 114 108 115 115 118 117 120 109 99 94 93 95 101 108 108 108 108 108 106 101 102 98 99 83 336 350 339
1 161 243 264 277 304 65 43 19 25 45 63 71 102 125 129 125 120 113 110 112 112 112 108 104 105 105 100 96 100 107 110 105 104 103 100 102 98 102 67 23 351 55 16
220 250 242 264 54 323 34 48 17 62 71 84 100 100 104 120 123 122 117 115 116 111 108 103 105 105 103 103 101 102 103 106 110 107 105 99 102 89 66 14 52 172 182 306